Regional Weather Roundup
Issued by NWS Portland, ME

Home | Current Version | Previous Version | Text Only | Print | Product List | Glossary On
Versions: 1 2 3 4 5 6 7 8 9 10 11 12 13 14 15 16 17 18 19 20 21 22 23 24 25 26 27 28 29 30 31 32 33 34 35 36 37 38 39 40 41 42 43 44 45 46 47 48 49 50
000
ASUS41 KGYX 300310
RWRGYX
WEATHER ROUNDUP FOR MAINE AND NEW HAMPSHIRE
NATIONAL WEATHER SERVICE GRAY ME
1000 PM EST THU JAN 29 2015

MEZ002-005-006-010-012-015-018-020-021-024-026-027-029-300400-
MAINE

CITY           SKY/WX    TMP DP  RH WIND       PRES   REMARKS
PORTLAND       MOCLDY    21  13  71 CALM      30.09F
SANFORD        PTCLDY    16  10  79 CALM      30.06F
BAR HARBOR     PTCLDY    10   9  92 NW3       30.12F
WISCASSET      PTCLDY    10   5  80 CALM      30.11F
ROCKLAND       PTCLDY    10   5  79 CALM      30.09F
FRYEBURG       CLOUDY    24  11  57 SW3       30.06F
LEWISTONAUBURN PTCLDY    16   5  62 CALM      30.07F
AUGUSTA        CLEAR     20   5  52 SE3       30.08F
WATERVILLE     MOCLDY    18   1  49 CALM      30.06F
BANGOR         PTCLDY     2  -1  88 CALM      30.10F
GREENVILLE       N/A     16   1  51 SE6       29.96F
MILLINOCKET    CLEAR      3   0  87 CALM      30.09F
HOULTON        PTCLDY    -3  -7  82 S3        30.07F
PRESQUE ISLE   PTCLDY     5 N/A N/A CALM      30.05F
FRENCHVILLE    PTCLDY    13   5  70 SE9       30.01F
CARIBOU        PTCLDY     9   4  80 SE6       30.05F
$$

NHZ002-005-008-009-011-012-014-300400-
NEW HAMPSHIRE

CITY           SKY/WX    TMP DP  RH WIND       PRES   REMARKS
PORTSMOUTH     CLOUDY    24  19  80 W5        30.06F
ROCHESTER      CLOUDY    25  18  74 CALM      30.07F
NASHUA         MOCLDY    28  20  72 SE6       30.08F
MANCHESTER     CLOUDY    29  20  69 S8        30.05F
CONCORD        CLOUDY    28  19  69 SE5       30.06F
LACONIA        CLOUDY    25  14  63 CALM      30.03F
PLYMOUTH       CLOUDY    27  15  61 E6        30.04S
BERLIN         CLOUDY    27   4  37 E5        29.93F
WHITEFIELD     CLOUDY    31   4  31 S9        29.93F
JAFFREY        CLOUDY    27  11  51 S6        30.01F
KEENE          CLOUDY    28  10  47 CALM      30.03F
LEBANON        CLOUDY    29  12  49 SW6       30.00F
MT WASHINGTON  NOT AVBL
$$

VTZ005-007-008-300400-
VERMONT

CITY           SKY/WX    TMP DP  RH WIND       PRES   REMARKS
ST JOHNSBURY     N/A     29   6  38 MISG      29.94F
MONTPELIER     CLOUDY    26   9  48 S20G30    29.93F WCI  12
BURLINGTON     CLOUDY    31   8  38 S17G28    29.88F WCI  19
$$

MAZ007-012-024-CTZ003-RIZ002-NYZ038-NYZ072-300400-
SOUTHERN NEW ENGLAND AND NY

CITY           SKY/WX    TMP DP  RH WIND       PRES   REMARKS
BOSTON         CLOUDY    28  20  71 S7        30.11F
WORCESTER      CLOUDY    25  19  78 S8        30.02F
NANTUCKET      MOCLDY    28  24  85 CALM      30.12F
PROVIDENCE     CLOUDY    27  19  72 E5        30.10F
HARTFORD       CLOUDY    29  22  75 S6        30.05F
ALBANY         LGT SNOW  29  15  56 S17G26    29.98F WCI  17
NEW YORK CITY  CLOUDY    34  26  72 SW8       30.06S
$$

ANZ081-ANZ082-ANZ150-NHZ014-MEZ023>029-300400-
COASTAL MARINE OBSERVATIONS

STATION/POSITION TIME  TEMP    WIND        PRES    WAVE
                       AIR SEA DIR/SP/G            HT/PER
                 (UTC) (F)     (DEG/KT/KT) (MB)    (FT/S)
MOUNT DESERT ROC 0300   34                 1019.0F
MATINICUS ROCK   0300          150/  6/  7 1019.1F
PORTLAND WX BUOY 0250   31 41  330/  6/  6 1018.7F   2/10
WELLS            0200   23 34  330/  3/  3 1018.9F
ISLE OF SHOALS   0300   34     190/ 13/ 15 1017.6F
JEFFREYS LEDGE   0221      44                N/A     3/11
CASHES LEDGE BUO 0250   35 44  160/  6/  8 1019.5F   3/10
$$

.............KEY..............
   WCI - WIND CHILL
   TC  - TEMPERATURE IN CELSIUS
   VSB - VISIBILITY IN MILES
   HX  - HEAT INDEX
   FAIR- INDICATES FEW OR NO CLOUDS BELOW 12,000 FT, WITH NO
         SIGNIFICANT WEATHER AND/OR OBSTRUCTIONS TO VISIBILITY.




USA.gov is the U.S. government's official web portal to all federal, state and local government web resources and services.